| time (UTC) | temp F | wind direction | speed MPH | gust MPH | rain 1hr in | rain 24hr in | rain mn in | humidity % | barometer mb |
| 20260504035803 | 59 | 326 | 9.0 | 14.0 | 0.00 | 0.00 | 0.00 | 37 | 999.0 |
| 20260504035703 | 59 | 324 | 8.0 | 17.0 | 0.00 | 0.00 | 0.00 | 37 | 999.0 |
| 20260504035603 | 59 | 323 | 8.0 | 17.0 | 0.00 | 0.00 | 0.00 | 36 | 999.0 |
| 20260504035503 | 59 | 324 | 8.0 | 17.0 | 0.00 | 0.00 | 0.00 | 36 | 999.0 |
| 20260504035403 | 59 | 323 | 9.0 | 17.0 | 0.00 | 0.00 | 0.00 | 36 | 999.0 |
| 20260504035304 | 59 | 321 | 9.0 | 17.0 | 0.00 | 0.00 | 0.00 | 36 | 999.0 |
| 20260504035202 | 59 | 320 | 11.0 | 17.0 | 0.00 | 0.00 | 0.00 | 36 | 999.0 |
| 20260504035103 | 59 | 319 | 11.0 | 17.0 | 0.00 | 0.00 | 0.00 | 36 | 999.0 |
| 20260504035004 | 59 | 320 | 10.0 | 17.0 | 0.00 | 0.00 | 0.00 | 36 | 999.0 |
| 20260504034903 | 59 | 323 | 12.0 | 17.0 | 0.00 | 0.00 | 0.00 | 36 | 999.0 |
| 20260504034803 | 59 | 324 | 14.0 | 17.0 | 0.00 | 0.00 | 0.00 | 36 | 999.0 |
| 20260504034603 | 59 | 326 | 10.0 | 11.0 | 0.00 | 0.00 | 0.00 | 37 | 999.0 |
| 20260504034503 | 58 | 325 | 10.0 | 10.0 | 0.00 | 0.00 | 0.00 | 37 | 999.0 |
| 20260504034403 | 58 | 325 | 8.0 | 10.0 | 0.00 | 0.00 | 0.00 | 37 | 999.0 |
| 20260504034303 | 58 | 324 | 8.0 | 10.0 | 0.00 | 0.00 | 0.00 | 37 | 999.0 |
| 20260504034203 | 58 | 324 | 9.0 | 10.0 | 0.00 | 0.00 | 0.00 | 37 | 999.0 |
| 20260504034103 | 58 | 324 | 6.0 | 9.0 | 0.00 | 0.00 | 0.00 | 37 | 999.0 |
| 20260504034004 | 58 | 322 | 6.0 | 9.0 | 0.00 | 0.00 | 0.00 | 37 | 999.0 |
| 20260504033903 | 58 | 319 | 8.0 | 9.0 | 0.00 | 0.00 | 0.00 | 37 | 999.0 |
| 20260504033803 | 58 | 315 | 8.0 | 9.0 | 0.00 | 0.00 | 0.00 | 37 | 999.0 |
| 20260504033703 | 58 | 313 | 7.0 | 8.0 | 0.00 | 0.00 | 0.00 | 37 | 999.0 |
| 20260504033603 | 58 | 312 | 6.0 | 7.0 | 0.00 | 0.00 | 0.00 | 37 | 999.0 |
| 20260504033503 | 58 | 312 | 6.0 | 8.0 | 0.00 | 0.00 | 0.00 | 37 | 999.0 |
| 20260504033103 | 59 | 313 | 6.0 | 8.0 | 0.00 | 0.00 | 0.00 | 37 | 999.0 |
| 20260504033004 | 59 | 313 | 6.0 | 8.0 | 0.00 | 0.00 | 0.00 | 37 | 999.0 |
| 20260504032803 | 59 | 314 | 6.0 | 8.0 | 0.00 | 0.00 | 0.00 | 37 | 999.0 |
| 20260504032704 | 59 | 315 | 7.0 | 9.0 | 0.00 | 0.00 | 0.00 | 36 | 999.0 |
| 20260504032602 | 59 | 315 | 7.0 | 9.0 | 0.00 | 0.00 | 0.00 | 36 | 999.0 |
| 20260504032502 | 59 | 315 | 7.0 | 9.0 | 0.00 | 0.00 | 0.00 | 36 | 999.0 |
| 20260504032403 | 59 | 316 | 6.0 | 9.0 | 0.00 | 0.00 | 0.00 | 36 | 999.0 |
| 20260504032304 | 59 | 317 | 6.0 | 9.0 | 0.00 | 0.00 | 0.00 | 36 | 999.0 |
| 20260504031903 | 60 | 317 | 8.0 | 9.0 | 0.00 | 0.00 | 0.00 | 36 | 999.0 |
| 20260504031803 | 60 | 316 | 8.0 | 10.0 | 0.00 | 0.00 | 0.00 | 36 | 999.0 |
| 20260504031703 | 60 | 316 | 8.0 | 10.0 | 0.00 | 0.00 | 0.00 | 36 | 999.0 |
| 20260504031503 | 60 | 316 | 8.0 | 10.0 | 0.00 | 0.00 | 0.00 | 36 | 999.0 |
| 20260504031303 | 61 | 315 | 8.0 | 10.0 | 0.00 | 0.00 | 0.00 | 36 | 999.0 |
| 20260504031203 | 61 | 315 | 7.0 | 10.0 | 0.00 | 0.00 | 0.00 | 36 | 999.0 |
| 20260504031103 | 61 | 315 | 7.0 | 10.0 | 0.00 | 0.00 | 0.00 | 36 | 999.0 |
| 20260504031003 | 61 | 316 | 8.0 | 10.0 | 0.00 | 0.00 | 0.00 | 36 | 999.0 |
| 20260504030903 | 61 | 316 | 9.0 | 10.0 | 0.00 | 0.00 | 0.00 | 36 | 999.0 |
| 20260504030803 | 61 | 316 | 9.0 | 10.0 | 0.00 | 0.00 | 0.00 | 36 | 999.0 |
| 20260504030703 | 61 | 317 | 9.0 | 10.0 | 0.00 | 0.00 | 0.00 | 36 | 999.0 |
| 20260504030603 | 61 | 317 | 9.0 | 10.0 | 0.00 | 0.00 | 0.00 | 36 | 999.0 |
| 20260504030503 | 61 | 316 | 9.0 | 10.0 | 0.00 | 0.00 | 0.00 | 36 | 999.0 |
| 20260504030403 | 61 | 316 | 9.0 | 10.0 | 0.00 | 0.00 | 0.00 | 34 | 999.0 |
| 20260504030303 | 61 | 316 | 8.0 | 10.0 | 0.00 | 0.00 | 0.00 | 34 | 999.0 |
| 20260504030202 | 61 | 315 | 8.0 | 10.0 | 0.00 | 0.00 | 0.00 | 34 | 999.0 |
| 20260504030004 | 62 | 315 | 7.0 | 11.0 | 0.00 | 0.00 | 0.00 | 34 | 999.0 |
| 20260504025903 | 62 | 314 | 8.0 | 12.0 | 0.00 | 0.00 | 0.00 | 34 | 999.0 |
| 20260504025803 | 62 | 316 | 8.0 | 13.0 | 0.00 | 0.00 | 0.00 | 34 | 999.0 |
| 20260504025704 | 62 | 315 | 8.0 | 13.0 | 0.00 | 0.00 | 0.00 | 34 | 999.0 |
| 20260504025603 | 62 | 315 | 8.0 | 13.0 | 0.00 | 0.00 | 0.00 | 34 | 999.0 |
| 20260504025503 | 62 | 316 | 9.0 | 13.0 | 0.00 | 0.00 | 0.00 | 34 | 999.0 |
| 20260504025403 | 62 | 316 | 9.0 | 13.0 | 0.00 | 0.00 | 0.00 | 34 | 999.0 |
| 20260504025203 | 62 | 317 | 10.0 | 13.0 | 0.00 | 0.00 | 0.00 | 34 | 999.0 |
| 20260504025103 | 62 | 315 | 9.0 | 13.0 | 0.00 | 0.00 | 0.00 | 34 | 999.0 |
| 20260504025003 | 63 | 315 | 10.0 | 13.0 | 0.00 | 0.00 | 0.00 | 34 | 999.0 |
| 20260504024904 | 63 | 317 | 10.0 | 13.0 | 0.00 | 0.00 | 0.00 | 34 | 999.0 |
| 20260504024803 | 63 | 315 | 11.0 | 12.0 | 0.00 | 0.00 | 0.00 | 34 | 999.0 |
| 20260504024703 | 63 | 316 | 11.0 | 12.0 | 0.00 | 0.00 | 0.00 | 34 | 999.0 |
| 20260504024603 | 63 | 314 | 10.0 | 11.0 | 0.00 | 0.00 | 0.00 | 34 | 999.0 |
| 20260504024502 | 63 | 314 | 9.0 | 11.0 | 0.00 | 0.00 | 0.00 | 34 | 999.0 |
| 20260504024403 | 63 | 314 | 9.0 | 11.0 | 0.00 | 0.00 | 0.00 | 34 | 999.0 |
| 20260504024103 | 63 | 314 | 8.0 | 10.0 | 0.00 | 0.00 | 0.00 | 34 | 999.0 |
| 20260504024003 | 63 | 314 | 8.0 | 10.0 | 0.00 | 0.00 | 0.00 | 34 | 999.0 |
| 20260504023903 | 64 | 312 | 9.0 | 10.0 | 0.00 | 0.00 | 0.00 | 33 | 999.0 |
| 20260504023803 | 64 | 312 | 9.0 | 12.0 | 0.00 | 0.00 | 0.00 | 33 | 999.0 |
| 20260504023706 | 64 | 310 | 9.0 | 12.0 | 0.00 | 0.00 | 0.00 | 33 | 999.0 |
| 20260504023603 | 64 | 311 | 9.0 | 12.0 | 0.00 | 0.00 | 0.00 | 33 | 999.0 |
| 20260504023503 | 64 | 311 | 9.0 | 12.0 | 0.00 | 0.00 | 0.00 | 33 | 999.0 |
| 20260504023402 | 64 | 309 | 8.0 | 12.0 | 0.00 | 0.00 | 0.00 | 33 | 999.0 |
| 20260504023303 | 64 | 309 | 7.0 | 12.0 | 0.00 | 0.00 | 0.00 | 33 | 999.0 |
| 20260504023203 | 64 | 309 | 7.0 | 12.0 | 0.00 | 0.00 | 0.00 | 33 | 999.0 |
| 20260504023103 | 64 | 310 | 8.0 | 12.0 | 0.00 | 0.00 | 0.00 | 33 | 999.0 |
| 20260504023004 | 64 | 310 | 6.0 | 12.0 | 0.00 | 0.00 | 0.00 | 33 | 999.0 |
| 20260504022804 | 64 | 310 | 5.0 | 9.0 | 0.00 | 0.00 | 0.00 | 33 | 999.0 |
| 20260504022703 | 64 | 311 | 6.0 | 9.0 | 0.00 | 0.00 | 0.00 | 33 | 999.0 |
| 20260504022602 | 64 | 310 | 5.0 | 8.0 | 0.00 | 0.00 | 0.00 | 33 | 999.0 |
| 20260504022503 | 64 | 310 | 5.0 | 8.0 | 0.00 | 0.00 | 0.00 | 33 | 999.0 |
| 20260504022304 | 64 | 310 | 4.0 | 10.0 | 0.00 | 0.00 | 0.00 | 32 | 999.0 |
| 20260504022203 | 64 | 310 | 4.0 | 10.0 | 0.00 | 0.00 | 0.00 | 32 | 999.0 |
| 20260504022103 | 65 | 310 | 5.0 | 10.0 | 0.00 | 0.00 | 0.00 | 32 | 999.0 |
| 20260504022003 | 65 | 311 | 5.0 | 10.0 | 0.00 | 0.00 | 0.00 | 32 | 999.0 |
| 20260504021903 | 65 | 311 | 6.0 | 10.0 | 0.00 | 0.00 | 0.00 | 32 | 999.0 |
| 20260504021803 | 65 | 311 | 6.0 | 10.0 | 0.00 | 0.00 | 0.00 | 32 | 999.0 |
| 20260504021703 | 65 | 311 | 6.0 | 10.0 | 0.00 | 0.00 | 0.00 | 32 | 999.0 |
| 20260504021603 | 65 | 312 | 7.0 | 10.0 | 0.00 | 0.00 | 0.00 | 32 | 999.0 |
| 20260504021503 | 65 | 312 | 7.0 | 10.0 | 0.00 | 0.00 | 0.00 | 32 | 999.0 |
| 20260504021403 | 65 | 315 | 9.0 | 10.0 | 0.00 | 0.00 | 0.00 | 32 | 999.0 |
| 20260504021303 | 66 | 315 | 7.0 | 9.0 | 0.00 | 0.00 | 0.00 | 32 | 999.0 |
| 20260504021203 | 66 | 314 | 7.0 | 9.0 | 0.00 | 0.00 | 0.00 | 32 | 999.0 |
| 20260504021103 | 66 | 314 | 6.0 | 9.0 | 0.00 | 0.00 | 0.00 | 32 | 999.0 |
| 20260504021003 | 66 | 314 | 8.0 | 9.0 | 0.00 | 0.00 | 0.00 | 32 | 999.0 |
| 20260504020903 | 66 | 314 | 7.0 | 9.0 | 0.00 | 0.00 | 0.00 | 32 | 999.0 |
| 20260504020703 | 66 | 315 | 7.0 | 9.0 | 0.00 | 0.00 | 0.00 | 32 | 999.0 |
| 20260504020603 | 66 | 315 | 8.0 | 9.0 | 0.00 | 0.00 | 0.00 | 32 | 999.0 |
| 20260504020503 | 67 | 315 | 8.0 | 9.0 | 0.00 | 0.00 | 0.00 | 32 | 999.0 |
| 20260504020404 | 67 | 315 | 8.0 | 9.0 | 0.00 | 0.00 | 0.00 | 32 | 999.0 |
| 20260504020302 | 67 | 314 | 7.0 | 9.0 | 0.00 | 0.00 | 0.00 | 32 | 999.0 |
| 20260504020004 | 67 | 316 | 6.0 | 8.0 | 0.00 | 0.00 | 0.00 | 32 | 999.0 |
| 20260504015803 | 68 | 317 | 6.0 | 8.0 | 0.00 | 0.00 | 0.00 | 31 | 999.0 |
| 20260504015503 | 68 | 315 | 5.0 | 8.0 | 0.00 | 0.00 | 0.00 | 31 | 999.0 |
| 20260504015403 | 68 | 314 | 4.0 | 8.0 | 0.00 | 0.00 | 0.00 | 31 | 999.0 |
| 20260504015304 | 68 | 313 | 6.0 | 8.0 | 0.00 | 0.00 | 0.00 | 31 | 999.0 |
| 20260504014803 | 69 | 310 | 6.0 | 8.0 | 0.00 | 0.00 | 0.00 | 30 | 999.0 |
| 20260504014703 | 69 | 310 | 4.0 | 9.0 | 0.00 | 0.00 | 0.00 | 30 | 999.0 |
| 20260504014603 | 69 | 309 | 4.0 | 9.0 | 0.00 | 0.00 | 0.00 | 30 | 999.0 |
| 20260504014503 | 70 | 310 | 6.0 | 10.0 | 0.00 | 0.00 | 0.00 | 30 | 999.0 |
| 20260504014403 | 70 | 311 | 7.0 | 12.0 | 0.00 | 0.00 | 0.00 | 30 | 999.0 |
| 20260504014303 | 70 | 312 | 6.0 | 12.0 | 0.00 | 0.00 | 0.00 | 30 | 999.0 |
| 20260504014203 | 70 | 312 | 6.0 | 12.0 | 0.00 | 0.00 | 0.00 | 30 | 999.0 |
| 20260504014104 | 70 | 312 | 5.0 | 12.0 | 0.00 | 0.00 | 0.00 | 30 | 999.0 |
| 20260504014004 | 71 | 312 | 7.0 | 12.0 | 0.00 | 0.00 | 0.00 | 30 | 999.0 |
| 20260504013903 | 71 | 312 | 7.0 | 12.0 | 0.00 | 0.00 | 0.00 | 30 | 999.0 |
| 20260504013803 | 71 | 312 | 8.0 | 12.0 | 0.00 | 0.00 | 0.00 | 30 | 999.0 |
| 20260504013703 | 71 | 311 | 6.0 | 12.0 | 0.00 | 0.00 | 0.00 | 29 | 999.0 |
| 20260504013602 | 71 | 311 | 8.0 | 12.0 | 0.00 | 0.00 | 0.00 | 29 | 999.0 |
| 20260504013503 | 71 | 311 | 9.0 | 12.0 | 0.00 | 0.00 | 0.00 | 29 | 999.0 |
| 20260504013403 | 71 | 307 | 7.0 | 9.0 | 0.00 | 0.00 | 0.00 | 29 | 999.0 |
| 20260504013303 | 71 | 304 | 6.0 | 8.0 | 0.00 | 0.00 | 0.00 | 29 | 999.0 |
| 20260504013203 | 71 | 305 | 5.0 | 8.0 | 0.00 | 0.00 | 0.00 | 29 | 999.0 |
| 20260504013103 | 71 | 305 | 4.0 | 8.0 | 0.00 | 0.00 | 0.00 | 29 | 999.0 |
| 20260504012903 | 72 | 304 | 4.0 | 8.0 | 0.00 | 0.00 | 0.00 | 27 | 999.0 |
| 20260504012803 | 72 | 304 | 4.0 | 8.0 | 0.00 | 0.00 | 0.00 | 27 | 999.0 |
| 20260504012602 | 72 | 306 | 5.0 | 8.0 | 0.00 | 0.00 | 0.00 | 26 | 999.0 |
| 20260504012403 | 72 | 304 | 6.0 | 9.0 | 0.00 | 0.00 | 0.00 | 26 | 1000.1 |
| 20260504012304 | 72 | 305 | 5.0 | 9.0 | 0.00 | 0.00 | 0.00 | 26 | 1000.1 |
| 20260504012203 | 72 | 304 | 7.0 | 9.0 | 0.00 | 0.00 | 0.00 | 26 | 1000.1 |
| 20260504012102 | 73 | 302 | 7.0 | 9.0 | 0.00 | 0.00 | 0.00 | 26 | 1000.1 |
| 20260504012004 | 73 | 300 | 6.0 | 9.0 | 0.00 | 0.00 | 0.00 | 26 | 1000.1 |
| 20260504011803 | 73 | 298 | 6.0 | 9.0 | 0.00 | 0.00 | 0.00 | 26 | 1000.1 |
| 20260504011703 | 73 | 299 | 6.0 | 9.0 | 0.00 | 0.00 | 0.00 | 26 | 1000.1 |
| 20260504011603 | 73 | 299 | 7.0 | 9.0 | 0.00 | 0.00 | 0.00 | 26 | 1000.1 |
| 20260504011403 | 73 | 298 | 8.0 | 9.0 | 0.00 | 0.00 | 0.00 | 26 | 1000.1 |
| 20260504011303 | 73 | 297 | 8.0 | 9.0 | 0.00 | 0.00 | 0.00 | 26 | 1000.1 |
| 20260504011203 | 73 | 298 | 6.0 | 9.0 | 0.00 | 0.00 | 0.00 | 25 | 1000.1 |
| 20260504011103 | 74 | 297 | 8.0 | 9.0 | 0.00 | 0.00 | 0.00 | 26 | 1000.1 |
| 20260504011003 | 74 | 297 | 6.0 | 9.0 | 0.00 | 0.00 | 0.00 | 26 | 1000.1 |
| 20260504010803 | 74 | 293 | 6.0 | 10.0 | 0.00 | 0.00 | 0.00 | 25 | 1000.1 |
| 20260504010703 | 74 | 289 | 8.0 | 10.0 | 0.00 | 0.00 | 0.00 | 25 | 1000.1 |
| 20260504010602 | 74 | 287 | 6.0 | 10.0 | 0.00 | 0.00 | 0.00 | 25 | 1000.1 |
| 20260504010503 | 74 | 288 | 6.0 | 10.0 | 0.00 | 0.00 | 0.00 | 25 | 1000.1 |
| 20260504010403 | 74 | 288 | 6.0 | 10.0 | 0.00 | 0.00 | 0.00 | 25 | 1000.1 |
| 20260504010303 | 74 | 289 | 6.0 | 10.0 | 0.00 | 0.00 | 0.00 | 25 | 1000.1 |
| 20260504010203 | 74 | 289 | 4.0 | 10.0 | 0.00 | 0.00 | 0.00 | 25 | 1000.1 |
| 20260504010003 | 75 | 293 | 6.0 | 10.0 | 0.00 | 0.00 | 0.00 | 24 | 1000.1 |
| 20260504005903 | 75 | 297 | 5.0 | 11.0 | 0.00 | 0.00 | 0.00 | 25 | 1000.1 |
| 20260504005803 | 75 | 299 | 5.0 | 11.0 | 0.00 | 0.00 | 0.00 | 25 | 1000.1 |
| 20260504005703 | 75 | 301 | 6.0 | 11.0 | 0.00 | 0.00 | 0.00 | 25 | 1000.1 |
| 20260504005603 | 75 | 301 | 7.0 | 11.0 | 0.00 | 0.00 | 0.00 | 24 | 1000.1 |
| 20260504005503 | 75 | 301 | 5.0 | 11.0 | 0.00 | 0.00 | 0.00 | 24 | 999.0 |
| 20260504005403 | 75 | 302 | 8.0 | 11.0 | 0.00 | 0.00 | 0.00 | 24 | 999.0 |
| 20260504005305 | 75 | 299 | 7.0 | 11.0 | 0.00 | 0.00 | 0.00 | 23 | 999.0 |
| 20260504005203 | 75 | 300 | 7.0 | 11.0 | 0.00 | 0.00 | 0.00 | 24 | 999.0 |
| 20260504005103 | 76 | 301 | 7.0 | 11.0 | 0.00 | 0.00 | 0.00 | 24 | 999.0 |
| 20260504005003 | 76 | 300 | 8.0 | 12.0 | 0.00 | 0.00 | 0.00 | 23 | 999.0 |
| 20260504004903 | 76 | 299 | 8.0 | 12.0 | 0.00 | 0.00 | 0.00 | 24 | 999.0 |
| 20260504004803 | 76 | 299 | 6.0 | 12.0 | 0.00 | 0.00 | 0.00 | 24 | 999.0 |
| 20260504004703 | 76 | 300 | 6.0 | 12.0 | 0.00 | 0.00 | 0.00 | 25 | 999.0 |
| 20260504004603 | 76 | 300 | 5.0 | 12.0 | 0.00 | 0.00 | 0.00 | 23 | 999.0 |
| 20260504004503 | 76 | 301 | 6.0 | 12.0 | 0.00 | 0.00 | 0.00 | 24 | 999.0 |
| 20260504004403 | 76 | 301 | 7.0 | 12.0 | 0.00 | 0.00 | 0.00 | 24 | 999.0 |
| 20260504004304 | 76 | 302 | 6.0 | 12.0 | 0.00 | 0.00 | 0.00 | 24 | 999.0 |
| 20260504004203 | 76 | 303 | 6.0 | 12.0 | 0.00 | 0.00 | 0.00 | 24 | 999.0 |
| 20260504004004 | 76 | 304 | 8.0 | 11.0 | 0.00 | 0.00 | 0.00 | 24 | 999.0 |
| 20260504003903 | 76 | 305 | 8.0 | 11.0 | 0.00 | 0.00 | 0.00 | 24 | 999.0 |
| 20260504003804 | 76 | 306 | 6.0 | 11.0 | 0.00 | 0.00 | 0.00 | 24 | 999.0 |
| 20260504003703 | 76 | 303 | 8.0 | 11.0 | 0.00 | 0.00 | 0.00 | 24 | 999.0 |
| 20260504003603 | 76 | 305 | 7.0 | 11.0 | 0.00 | 0.00 | 0.00 | 23 | 999.0 |
| 20260504003503 | 76 | 307 | 8.0 | 11.0 | 0.00 | 0.00 | 0.00 | 23 | 999.0 |
| 20260504003403 | 76 | 306 | 8.0 | 11.0 | 0.00 | 0.00 | 0.00 | 23 | 999.0 |
| 20260504003303 | 76 | 307 | 7.0 | 10.0 | 0.00 | 0.00 | 0.00 | 24 | 999.0 |
| 20260504003203 | 76 | 306 | 6.0 | 10.0 | 0.00 | 0.00 | 0.00 | 24 | 999.0 |
| 20260504003103 | 76 | 303 | 8.0 | 10.0 | 0.00 | 0.00 | 0.00 | 24 | 999.0 |
| 20260504003004 | 76 | 302 | 9.0 | 10.0 | 0.00 | 0.00 | 0.00 | 24 | 999.0 |
| 20260504002903 | 76 | 300 | 9.0 | 11.0 | 0.00 | 0.00 | 0.00 | 23 | 999.0 |
| 20260504002803 | 77 | 299 | 8.0 | 11.0 | 0.00 | 0.00 | 0.00 | 24 | 999.0 |
| 20260504002703 | 77 | 300 | 6.0 | 12.0 | 0.00 | 0.00 | 0.00 | 24 | 999.0 |
| 20260504002603 | 77 | 295 | 7.0 | 12.0 | 0.00 | 0.00 | 0.00 | 23 | 999.0 |
| 20260504002503 | 77 | 295 | 6.0 | 12.0 | 0.00 | 0.00 | 0.00 | 24 | 999.0 |
| 20260504002403 | 77 | 295 | 6.0 | 12.0 | 0.00 | 0.00 | 0.00 | 23 | 999.0 |
| 20260504002304 | 77 | 293 | 4.0 | 12.0 | 0.00 | 0.00 | 0.00 | 23 | 999.0 |
| 20260504002203 | 77 | 293 | 8.0 | 12.0 | 0.00 | 0.00 | 0.00 | 23 | 999.0 |
| 20260504002103 | 77 | 295 | 9.0 | 12.0 | 0.00 | 0.00 | 0.00 | 24 | 999.0 |
| 20260504001903 | 77 | 295 | 10.0 | 12.0 | 0.00 | 0.00 | 0.00 | 24 | 999.0 |
| 20260504001703 | 77 | 289 | 8.0 | 12.0 | 0.00 | 0.00 | 0.00 | 23 | 999.0 |
| 20260504001503 | 77 | 285 | 5.0 | 12.0 | 0.00 | 0.00 | 0.00 | 24 | 999.0 |
| 20260504001403 | 77 | 281 | 5.0 | 12.0 | 0.00 | 0.00 | 0.00 | 25 | 999.0 |
| 20260504001303 | 77 | 286 | 7.0 | 12.0 | 0.00 | 0.00 | 0.00 | 24 | 999.0 |
| 20260504001203 | 77 | 288 | 9.0 | 14.0 | 0.00 | 0.00 | 0.00 | 24 | 999.0 |
| 20260504001103 | 77 | 288 | 6.0 | 14.0 | 0.00 | 0.00 | 0.00 | 24 | 999.0 |
| 20260504001003 | 77 | 292 | 3.0 | 14.0 | 0.00 | 0.00 | 0.00 | 24 | 999.0 |
| 20260504000903 | 77 | 292 | 5.0 | 14.0 | 0.00 | 0.00 | 0.00 | 25 | 999.0 |
| 20260504000803 | 77 | 292 | 6.0 | 14.0 | 0.00 | 0.00 | 0.00 | 24 | 999.0 |
| 20260504000703 | 77 | 291 | 7.0 | 14.0 | 0.00 | 0.00 | 0.00 | 23 | 999.0 |
| 20260504000603 | 77 | 292 | 9.0 | 14.0 | 0.00 | 0.00 | 0.00 | 24 | 999.0 |
| 20260504000503 | 76 | 294 | 6.0 | 14.0 | 0.00 | 0.00 | 0.00 | 25 | 999.0 |
| 20260504000402 | 76 | 293 | 7.0 | 14.0 | 0.00 | 0.00 | 0.00 | 24 | 999.0 |
| 20260504000303 | 76 | 294 | 9.0 | 17.0 | 0.00 | 0.00 | 0.00 | 25 | 999.0 |
| 20260504000204 | 76 | 293 | 10.0 | 17.0 | 0.00 | 0.00 | 0.00 | 24 | 999.0 |
| 20260504000003 | 76 | 290 | 10.0 | 17.0 | 0.00 | 0.00 | 0.00 | 23 | 999.0 |
| 20260503235903 | 76 | 286 | 10.0 | 17.0 | 0.00 | 0.00 | 0.00 | 25 | 999.0 |
| 20260503235803 | 77 | 287 | 9.0 | 17.0 | 0.00 | 0.00 | 0.00 | 25 | 999.0 |
| 20260503235703 | 77 | 285 | 9.0 | 19.0 | 0.00 | 0.00 | 0.00 | 25 | 999.0 |
| 20260503235603 | 77 | 286 | 9.0 | 19.0 | 0.00 | 0.00 | 0.00 | 25 | 999.0 |
| 20260503235504 | 77 | 287 | 10.0 | 19.0 | 0.00 | 0.00 | 0.00 | 25 | 1000.1 |
| 20260503235403 | 77 | 291 | 12.0 | 19.0 | 0.00 | 0.00 | 0.00 | 25 | 1000.1 |
| 20260503235304 | 77 | 289 | 9.0 | 19.0 | 0.00 | 0.00 | 0.00 | 25 | 1000.1 |
| 20260503235203 | 77 | 286 | 9.0 | 19.0 | 0.00 | 0.00 | 0.00 | 25 | 1000.1 |
| 20260503235003 | 77 | 290 | 8.0 | 19.0 | 0.00 | 0.00 | 0.00 | 27 | 1000.1 |
| 20260503234903 | 77 | 293 | 12.0 | 19.0 | 0.00 | 0.00 | 0.00 | 26 | 1000.1 |
| 20260503234803 | 77 | 294 | 12.0 | 19.0 | 0.00 | 0.00 | 0.00 | 25 | 1000.1 |
| 20260503234603 | 77 | 299 | 7.0 | 17.0 | 0.00 | 0.00 | 0.00 | 26 | 1000.1 |
| 20260503234503 | 77 | 297 | 6.0 | 17.0 | 0.00 | 0.00 | 0.00 | 26 | 1000.1 |
| 20260503234404 | 77 | 295 | 6.0 | 17.0 | 0.00 | 0.00 | 0.00 | 25 | 1000.1 |
| 20260503234303 | 76 | 294 | 10.0 | 17.0 | 0.00 | 0.00 | 0.00 | 25 | 1000.1 |
| 20260503234203 | 76 | 296 | 12.0 | 17.0 | 0.00 | 0.00 | 0.00 | 26 | 1000.1 |
| 20260503234103 | 76 | 294 | 9.0 | 17.0 | 0.00 | 0.00 | 0.00 | 25 | 1000.1 |
| 20260503234004 | 76 | 289 | 7.0 | 17.0 | 0.00 | 0.00 | 0.00 | 26 | 1000.1 |
| 20260503233903 | 76 | 290 | 10.0 | 17.0 | 0.00 | 0.00 | 0.00 | 26 | 1000.1 |
| 20260503233803 | 76 | 293 | 12.0 | 17.0 | 0.00 | 0.00 | 0.00 | 26 | 1000.1 |
| 20260503233703 | 77 | 289 | 10.0 | 13.0 | 0.00 | 0.00 | 0.00 | 27 | 1000.1 |
| 20260503233603 | 77 | 291 | 8.0 | 13.0 | 0.00 | 0.00 | 0.00 | 27 | 1000.1 |
| 20260503233503 | 77 | 296 | 6.0 | 11.0 | 0.00 | 0.00 | 0.00 | 27 | 1000.1 |
| 20260503233403 | 77 | 302 | 8.0 | 12.0 | 0.00 | 0.00 | 0.00 | 27 | 1000.1 |
| 20260503233303 | 77 | 305 | 6.0 | 12.0 | 0.00 | 0.00 | 0.00 | 29 | 1000.1 |
| 20260503233202 | 77 | 305 | 9.0 | 12.0 | 0.00 | 0.00 | 0.00 | 29 | 1000.1 |
| 20260503233103 | 77 | 309 | 6.0 | 14.0 | 0.00 | 0.00 | 0.00 | 27 | 1000.1 |
| 20260503233004 | 77 | 311 | 7.0 | 14.0 | 0.00 | 0.00 | 0.00 | 29 | 1000.1 |
| 20260503232903 | 77 | 311 | 5.0 | 14.0 | 0.00 | 0.00 | 0.00 | 29 | 1000.1 |
| 20260503232803 | 76 | 310 | 5.0 | 14.0 | 0.00 | 0.00 | 0.00 | 29 | 1000.1 |
| 20260503232703 | 76 | 311 | 9.0 | 14.0 | 0.00 | 0.00 | 0.00 | 29 | 1000.1 |
| 20260503232403 | 76 | 307 | 7.0 | 14.0 | 0.00 | 0.00 | 0.00 | 29 | 1000.1 |
| 20260503232305 | 76 | 305 | 6.0 | 14.0 | 0.00 | 0.00 | 0.00 | 29 | 1000.1 |
| 20260503232203 | 76 | 306 | 9.0 | 14.0 | 0.00 | 0.00 | 0.00 | 29 | 1000.1 |
| 20260503232104 | 76 | 303 | 7.0 | 13.0 | 0.00 | 0.00 | 0.00 | 29 | 1000.1 |
| 20260503232004 | 76 | 296 | 7.0 | 13.0 | 0.00 | 0.00 | 0.00 | 29 | 1000.1 |
| 20260503231903 | 76 | 287 | 7.0 | 18.0 | 0.00 | 0.00 | 0.00 | 29 | 1000.1 |
| 20260503231803 | 76 | 282 | 8.0 | 18.0 | 0.00 | 0.00 | 0.00 | 27 | 1000.1 |
| 20260503231702 | 76 | 280 | 10.0 | 18.0 | 0.00 | 0.00 | 0.00 | 29 | 1000.1 |
| 20260503231603 | 75 | 278 | 8.0 | 18.0 | 0.00 | 0.00 | 0.00 | 29 | 1000.1 |
| 20260503231503 | 75 | 281 | 8.0 | 18.0 | 0.00 | 0.00 | 0.00 | 29 | 1000.1 |
| 20260503231403 | 75 | 279 | 5.0 | 18.0 | 0.00 | 0.00 | 0.00 | 29 | 1000.1 |
| 20260503231303 | 75 | 280 | 5.0 | 18.0 | 0.00 | 0.00 | 0.00 | 29 | 1000.1 |
| 20260503231203 | 76 | 280 | 8.0 | 18.0 | 0.00 | 0.00 | 0.00 | 27 | 1000.1 |
| 20260503231103 | 76 | 284 | 8.0 | 18.0 | 0.00 | 0.00 | 0.00 | 29 | 1000.1 |
| 20260503231003 | 76 | 285 | 9.0 | 18.0 | 0.00 | 0.00 | 0.00 | 27 | 1000.1 |
| 20260503230903 | 75 | 295 | 7.0 | 13.0 | 0.00 | 0.00 | 0.00 | 29 | 1000.1 |
| 20260503230803 | 75 | 297 | 9.0 | 13.0 | 0.00 | 0.00 | 0.00 | 27 | 1000.1 |
| 20260503230703 | 75 | 298 | 9.0 | 13.0 | 0.00 | 0.00 | 0.00 | 27 | 1000.1 |
| 20260503230603 | 75 | 298 | 9.0 | 13.0 | 0.00 | 0.00 | 0.00 | 27 | 1000.1 |
| 20260503230503 | 76 | 299 | 10.0 | 13.0 | 0.00 | 0.00 | 0.00 | 29 | 1000.1 |
| 20260503230402 | 76 | 299 | 9.0 | 13.0 | 0.00 | 0.00 | 0.00 | 29 | 1000.1 |
| 20260503230303 | 77 | 300 | 6.0 | 13.0 | 0.00 | 0.00 | 0.00 | 29 | 1000.1 |
| 20260503230203 | 77 | 300 | 8.0 | 13.0 | 0.00 | 0.00 | 0.00 | 27 | 1000.1 |
| 20260503230103 | 77 | 297 | 6.0 | 13.0 | 0.00 | 0.00 | 0.00 | 27 | 1000.1 |
| 20260503230003 | 77 | 298 | 7.0 | 13.0 | 0.00 | 0.00 | 0.00 | 27 | 1000.1 |
| 20260503225903 | 77 | 298 | 7.0 | 13.0 | 0.00 | 0.00 | 0.00 | 27 | 1000.1 |
| 20260503225803 | 77 | 300 | 7.0 | 13.0 | 0.00 | 0.00 | 0.00 | 26 | 1000.1 |
| 20260503225703 | 77 | 301 | 6.0 | 13.0 | 0.00 | 0.00 | 0.00 | 27 | 1000.1 |
| 20260503225603 | 77 | 304 | 9.0 | 13.0 | 0.00 | 0.00 | 0.00 | 27 | 1000.1 |
| 20260503225503 | 76 | 301 | 8.0 | 13.0 | 0.00 | 0.00 | 0.00 | 27 | 1001.2 |
| 20260503225403 | 76 | 297 | 8.0 | 14.0 | 0.00 | 0.00 | 0.00 | 29 | 1001.2 |
| 20260503225304 | 76 | 289 | 9.0 | 20.0 | 0.00 | 0.00 | 0.00 | 29 | 1001.2 |
| 20260503225203 | 76 | 286 | 8.0 | 20.0 | 0.00 | 0.00 | 0.00 | 29 | 1001.2 |
| 20260503225103 | 76 | 281 | 9.0 | 20.0 | 0.00 | 0.00 | 0.00 | 29 | 1001.2 |
| 20260503225003 | 77 | 276 | 9.0 | 20.0 | 0.00 | 0.00 | 0.00 | 27 | 1001.2 |
| 20260503224903 | 77 | 269 | 9.0 | 20.0 | 0.00 | 0.00 | 0.00 | 27 | 1001.2 |
| 20260503224803 | 77 | 267 | 7.0 | 20.0 | 0.00 | 0.00 | 0.00 | 27 | 1001.2 |
| 20260503224603 | 77 | 259 | 7.0 | 20.0 | 0.00 | 0.00 | 0.00 | 27 | 1001.2 |
| 20260503224503 | 77 | 260 | 12.0 | 20.0 | 0.00 | 0.00 | 0.00 | 27 | 1001.2 |
| 20260503224303 | 77 | 270 | 12.0 | 20.0 | 0.00 | 0.00 | 0.00 | 26 | 1001.2 |
| 20260503224203 | 78 | 277 | 12.0 | 19.0 | 0.00 | 0.00 | 0.00 | 26 | 1001.2 |
| 20260503224103 | 78 | 282 | 17.0 | 19.0 | 0.00 | 0.00 | 0.00 | 25 | 1001.2 |
| 20260503224004 | 78 | 289 | 8.0 | 19.0 | 0.00 | 0.00 | 0.00 | 26 | 1001.2 |
| 20260503223903 | 78 | 292 | 10.0 | 19.0 | 0.00 | 0.00 | 0.00 | 27 | 1001.2 |
| 20260503223803 | 78 | 293 | 8.0 | 19.0 | 0.00 | 0.00 | 0.00 | 26 | 1001.2 |
| 20260503223703 | 78 | 296 | 9.0 | 19.0 | 0.00 | 0.00 | 0.00 | 26 | 1001.2 |
| 20260503223604 | 78 | 298 | 10.0 | 19.0 | 0.00 | 0.00 | 0.00 | 25 | 1001.2 |
| 20260503223503 | 78 | 301 | 13.0 | 19.0 | 0.00 | 0.00 | 0.00 | 25 | 1001.2 |
| 20260503223403 | 78 | 298 | 14.0 | 19.0 | 0.00 | 0.00 | 0.00 | 26 | 1001.2 |
| 20260503223302 | 78 | 299 | 13.0 | 19.0 | 0.00 | 0.00 | 0.00 | 29 | 1001.2 |
| 20260503223203 | 78 | 300 | 8.0 | 14.0 | 0.00 | 0.00 | 0.00 | 29 | 1001.2 |
| 20260503223003 | 78 | 299 | 8.0 | 14.0 | 0.00 | 0.00 | 0.00 | 27 | 1001.2 |
| 20260503222803 | 78 | 300 | 9.0 | 14.0 | 0.00 | 0.00 | 0.00 | 26 | 1001.2 |
| 20260503222703 | 77 | 299 | 9.0 | 14.0 | 0.00 | 0.00 | 0.00 | 27 | 1001.2 |
| 20260503222602 | 77 | 299 | 6.0 | 14.0 | 0.00 | 0.00 | 0.00 | 27 | 1001.2 |
| 20260503222503 | 77 | 300 | 9.0 | 14.0 | 0.00 | 0.00 | 0.00 | 27 | 1001.2 |
| 20260503222403 | 78 | 304 | 10.0 | 14.0 | 0.00 | 0.00 | 0.00 | 27 | 1001.2 |
| 20260503222304 | 78 | 301 | 8.0 | 14.0 | 0.00 | 0.00 | 0.00 | 27 | 1001.2 |
| 20260503222202 | 78 | 300 | 8.0 | 14.0 | 0.00 | 0.00 | 0.00 | 27 | 1001.2 |
| 20260503221903 | 78 | 297 | 8.0 | 14.0 | 0.00 | 0.00 | 0.00 | 29 | 1001.2 |
| 20260503221803 | 78 | 288 | 9.0 | 14.0 | 0.00 | 0.00 | 0.00 | 27 | 1001.2 |
| 20260503221703 | 78 | 281 | 8.0 | 17.0 | 0.00 | 0.00 | 0.00 | 27 | 1001.2 |
| 20260503221603 | 78 | 277 | 10.0 | 17.0 | 0.00 | 0.00 | 0.00 | 27 | 1001.2 |
| 20260503221502 | 78 | 271 | 5.0 | 19.0 | 0.00 | 0.00 | 0.00 | 29 | 1001.2 |
| 20260503221402 | 77 | 267 | 5.0 | 19.0 | 0.00 | 0.00 | 0.00 | 27 | 1001.2 |
| 20260503221303 | 77 | 269 | 5.0 | 19.0 | 0.00 | 0.00 | 0.00 | 27 | 1001.2 |
| 20260503221203 | 77 | 268 | 8.0 | 19.0 | 0.00 | 0.00 | 0.00 | 26 | 1001.2 |
| 20260503221103 | 77 | 265 | 9.0 | 19.0 | 0.00 | 0.00 | 0.00 | 27 | 1001.2 |
| 20260503221003 | 77 | 263 | 11.0 | 19.0 | 0.00 | 0.00 | 0.00 | 27 | 1000.1 |
| 20260503220903 | 77 | 261 | 13.0 | 19.0 | 0.00 | 0.00 | 0.00 | 27 | 1000.1 |
| 20260503220803 | 77 | 263 | 13.0 | 19.0 | 0.00 | 0.00 | 0.00 | 29 | 1000.1 |
| 20260503220702 | 77 | 264 | 14.0 | 25.0 | 0.00 | 0.00 | 0.00 | 29 | 1000.1 |
| 20260503220603 | 77 | 266 | 9.0 | 25.0 | 0.00 | 0.00 | 0.00 | 29 | 1000.1 |
| 20260503220503 | 77 | 270 | 12.0 | 25.0 | 0.00 | 0.00 | 0.00 | 29 | 1000.1 |
| 20260503220403 | 77 | 274 | 6.0 | 25.0 | 0.00 | 0.00 | 0.00 | 29 | 1000.1 |
| 20260503220203 | 76 | 270 | 7.0 | 25.0 | 0.00 | 0.00 | 0.00 | 30 | 1000.1 |
| 20260503220003 | 76 | 277 | 14.0 | 25.0 | 0.00 | 0.00 | 0.00 | 27 | 1000.1 |
| 20260503215903 | 76 | 282 | 17.0 | 25.0 | 0.00 | 0.00 | 0.00 | 27 | 1000.1 |
| 20260503215803 | 75 | 283 | 11.0 | 25.0 | 0.00 | 0.00 | 0.00 | 27 | 1000.1 |
| 20260503215602 | 76 | 286 | 9.0 | 19.0 | 0.00 | 0.00 | 0.00 | 29 | 1000.1 |
| 20260503215503 | 76 | 285 | 6.0 | 19.0 | 0.00 | 0.00 | 0.00 | 29 | 1001.2 |
| 20260503215403 | 76 | 281 | 4.0 | 19.0 | 0.00 | 0.00 | 0.00 | 29 | 1001.2 |
| 20260503215304 | 76 | 277 | 9.0 | 19.0 | 0.00 | 0.00 | 0.00 | 27 | 1001.2 |
| 20260503215203 | 76 | 280 | 9.0 | 18.0 | 0.00 | 0.00 | 0.00 | 29 | 1001.2 |
| 20260503215103 | 76 | 275 | 12.0 | 18.0 | 0.00 | 0.00 | 0.00 | 29 | 1001.2 |
| 20260503214903 | 77 | 260 | 14.0 | 23.0 | 0.00 | 0.00 | 0.00 | 29 | 1001.2 |
| 20260503214603 | 77 | 266 | 10.0 | 23.0 | 0.00 | 0.00 | 0.00 | 29 | 1001.2 |
| 20260503214503 | 77 | 265 | 12.0 | 23.0 | 0.00 | 0.00 | 0.00 | 29 | 1001.2 |
| 20260503214403 | 77 | 263 | 10.0 | 23.0 | 0.00 | 0.00 | 0.00 | 29 | 1001.2 |
| 20260503214303 | 77 | 263 | 12.0 | 23.0 | 0.00 | 0.00 | 0.00 | 27 | 1001.2 |
| 20260503214203 | 77 | 262 | 17.0 | 23.0 | 0.00 | 0.00 | 0.00 | 24 | 1001.2 |
| 20260503214103 | 77 | 265 | 19.0 | 23.0 | 0.00 | 0.00 | 0.00 | 25 | 1001.2 |
| 20260503214003 | 77 | 269 | 12.0 | 23.0 | 0.00 | 0.00 | 0.00 | 27 | 1002.3 |
| 20260503213903 | 77 | 273 | 9.0 | 19.0 | 0.00 | 0.00 | 0.00 | 29 | 1002.3 |
| 20260503213803 | 77 | 270 | 10.0 | 19.0 | 0.00 | 0.00 | 0.00 | 27 | 1002.3 |
| 20260503213603 | 77 | 269 | 11.0 | 19.0 | 0.00 | 0.00 | 0.00 | 26 | 1002.3 |
| 20260503213503 | 77 | 270 | 9.0 | 19.0 | 0.00 | 0.00 | 0.00 | 27 | 1002.3 |
| 20260503213403 | 76 | 273 | 12.0 | 19.0 | 0.00 | 0.00 | 0.00 | 27 | 1002.3 |
| 20260503213303 | 76 | 275 | 17.0 | 19.0 | 0.00 | 0.00 | 0.00 | 27 | 1002.3 |
| 20260503213203 | 76 | 280 | 9.0 | 19.0 | 0.00 | 0.00 | 0.00 | 29 | 1002.3 |
| 20260503213102 | 76 | 284 | 6.0 | 17.0 | 0.00 | 0.00 | 0.00 | 27 | 1002.3 |
| 20260503213004 | 76 | 287 | 6.0 | 17.0 | 0.00 | 0.00 | 0.00 | 27 | 1002.3 |
| 20260503212803 | 76 | 291 | 11.0 | 17.0 | 0.00 | 0.00 | 0.00 | 29 | 1002.3 |
| 20260503212703 | 76 | 293 | 13.0 | 17.0 | 0.00 | 0.00 | 0.00 | 27 | 1002.3 |
| 20260503212603 | 76 | 290 | 9.0 | 17.0 | 0.00 | 0.00 | 0.00 | 29 | 1002.3 |
| 20260503212403 | 76 | 289 | 11.0 | 17.0 | 0.00 | 0.00 | 0.00 | 27 | 1002.3 |
| 20260503212203 | 76 | 290 | 13.0 | 17.0 | 0.00 | 0.00 | 0.00 | 27 | 1002.3 |
| 20260503212103 | 76 | 285 | 9.0 | 19.0 | 0.00 | 0.00 | 0.00 | 29 | 1002.3 |
| 20260503212003 | 76 | 278 | 11.0 | 19.0 | 0.00 | 0.00 | 0.00 | 27 | 1002.3 |
| 20260503211903 | 76 | 278 | 9.0 | 19.0 | 0.00 | 0.00 | 0.00 | 30 | 1002.3 |
| 20260503211503 | 75 | 271 | 10.0 | 19.0 | 0.00 | 0.00 | 0.00 | 27 | 1002.3 |
| 20260503211303 | 75 | 265 | 9.0 | 19.0 | 0.00 | 0.00 | 0.00 | 29 | 1002.3 |
| 20260503211202 | 75 | 264 | 13.0 | 19.0 | 0.00 | 0.00 | 0.00 | 30 | 1002.3 |
| 20260503211103 | 75 | 270 | 9.0 | 18.0 | 0.00 | 0.00 | 0.00 | 30 | 1002.3 |
| 20260503211004 | 75 | 274 | 7.0 | 18.0 | 0.00 | 0.00 | 0.00 | 29 | 1002.3 |
| 20260503210903 | 75 | 276 | 6.0 | 18.0 | 0.00 | 0.00 | 0.00 | 29 | 1002.3 |
| 20260503210803 | 75 | 276 | 7.0 | 18.0 | 0.00 | 0.00 | 0.00 | 30 | 1002.3 |
| 20260503210603 | 75 | 269 | 15.0 | 22.0 | 0.00 | 0.00 | 0.00 | 29 | 1002.3 |
| 20260503210503 | 75 | 268 | 11.0 | 22.0 | 0.00 | 0.00 | 0.00 | 27 | 1002.3 |
| 20260503210404 | 75 | 274 | 8.0 | 22.0 | 0.00 | 0.00 | 0.00 | 30 | 1002.3 |
| 20260503210303 | 75 | 270 | 10.0 | 24.0 | 0.00 | 0.00 | 0.00 | 29 | 1002.3 |
| 20260503210203 | 75 | 267 | 9.0 | 24.0 | 0.00 | 0.00 | 0.00 | 30 | 1002.3 |
| 20260503210005 | 75 | 252 | 9.0 | 24.0 | 0.00 | 0.00 | 0.00 | 30 | 1002.3 |
| 20260503205902 | 75 | 249 | 10.0 | 24.0 | 0.00 | 0.00 | 0.00 | 30 | 1002.3 |
| 20260503205703 | 74 | 246 | 19.0 | 24.0 | 0.00 | 0.00 | 0.00 | 27 | 1002.3 |
| 20260503205603 | 74 | 247 | 10.0 | 24.0 | 0.00 | 0.00 | 0.00 | 30 | 1002.3 |
| 20260503205403 | 74 | 248 | 20.0 | 24.0 | 0.00 | 0.00 | 0.00 | 30 | 1002.3 |
| 20260503205304 | 74 | 248 | 19.0 | 23.0 | 0.00 | 0.00 | 0.00 | 31 | 1002.3 |
| 20260503205203 | 74 | 250 | 19.0 | 23.0 | 0.00 | 0.00 | 0.00 | 31 | 1002.3 |
| 20260503205103 | 74 | 258 | 16.0 | 18.0 | 0.00 | 0.00 | 0.00 | 31 | 1002.3 |
| 20260503205004 | 75 | 269 | 9.0 | 19.0 | 0.00 | 0.00 | 0.00 | 30 | 1002.3 |
| 20260503204903 | 75 | 277 | 12.0 | 19.0 | 0.00 | 0.00 | 0.00 | 31 | 1002.3 |
| 20260503204803 | 74 | 279 | 10.0 | 19.0 | 0.00 | 0.00 | 0.00 | 31 | 1002.3 |
| 20260503204703 | 74 | 286 | 7.0 | 19.0 | 0.00 | 0.00 | 0.00 | 31 | 1002.3 |
| 20260503204603 | 74 | 288 | 7.0 | 19.0 | 0.00 | 0.00 | 0.00 | 31 | 1002.3 |
| 20260503204503 | 74 | 281 | 10.0 | 19.0 | 0.00 | 0.00 | 0.00 | 30 | 1002.3 |
| 20260503204403 | 74 | 281 | 7.0 | 23.0 | 0.00 | 0.00 | 0.00 | 30 | 1002.3 |
| 20260503204303 | 74 | 283 | 9.0 | 23.0 | 0.00 | 0.00 | 0.00 | 30 | 1002.3 |
| 20260503204203 | 74 | 278 | 12.0 | 23.0 | 0.00 | 0.00 | 0.00 | 31 | 1002.3 |
| 20260503204102 | 74 | 274 | 14.0 | 23.0 | 0.00 | 0.00 | 0.00 | 31 | 1002.3 |
| 20260503204004 | 74 | 269 | 9.0 | 23.0 | 0.00 | 0.00 | 0.00 | 31 | 1003.4 |
| 20260503203803 | 74 | 269 | 12.0 | 23.0 | 0.00 | 0.00 | 0.00 | 31 | 1003.4 |
| 20260503203703 | 74 | 272 | 5.0 | 23.0 | 0.00 | 0.00 | 0.00 | 31 | 1003.4 |
| 20260503203603 | 74 | 274 | 14.0 | 23.0 | 0.00 | 0.00 | 0.00 | 31 | 1003.4 |
| 20260503203504 | 74 | 279 | 15.0 | 23.0 | 0.00 | 0.00 | 0.00 | 31 | 1003.4 |
| 20260503203403 | 74 | 284 | 8.0 | 17.0 | 0.00 | 0.00 | 0.00 | 31 | 1003.4 |
| 20260503203303 | 74 | 283 | 14.0 | 17.0 | 0.00 | 0.00 | 0.00 | 31 | 1003.4 |
| 20260503203203 | 74 | 292 | 12.0 | 17.0 | 0.00 | 0.00 | 0.00 | 31 | 1003.4 |
| 20260503203103 | 74 | 297 | 9.0 | 20.0 | 0.00 | 0.00 | 0.00 | 31 | 1003.4 |
| 20260503203003 | 74 | 302 | 10.0 | 20.0 | 0.00 | 0.00 | 0.00 | 31 | 1003.4 |
| 20260503202903 | 74 | 303 | 12.0 | 20.0 | 0.00 | 0.00 | 0.00 | 30 | 1003.4 |
| 20260503202803 | 73 | 302 | 12.0 | 20.0 | 0.00 | 0.00 | 0.00 | 27 | 1003.4 |
| 20260503202702 | 74 | 299 | 9.0 | 20.0 | 0.00 | 0.00 | 0.00 | 31 | 1003.4 |
| 20260503202603 | 73 | 294 | 11.0 | 20.0 | 0.00 | 0.00 | 0.00 | 32 | 1003.4 |
| 20260503202503 | 73 | 288 | 8.0 | 20.0 | 0.00 | 0.00 | 0.00 | 32 | 1003.4 |
| 20260503202403 | 73 | 285 | 10.0 | 20.0 | 0.00 | 0.00 | 0.00 | 32 | 1003.4 |
| 20260503202304 | 73 | 283 | 12.0 | 20.0 | 0.00 | 0.00 | 0.00 | 31 | 1003.4 |
| 20260503202203 | 73 | 280 | 13.0 | 20.0 | 0.00 | 0.00 | 0.00 | 32 | 1003.4 |
| 20260503202103 | 73 | 278 | 10.0 | 17.0 | 0.00 | 0.00 | 0.00 | 32 | 1003.4 |
| 20260503202004 | 73 | 275 | 8.0 | 14.0 | 0.00 | 0.00 | 0.00 | 32 | 1003.4 |
| 20260503201902 | 73 | 283 | 7.0 | 17.0 | 0.00 | 0.00 | 0.00 | 32 | 1003.4 |
| 20260503201703 | 73 | 293 | 10.0 | 17.0 | 0.00 | 0.00 | 0.00 | 32 | 1003.4 |
| 20260503201503 | 73 | 304 | 8.0 | 17.0 | 0.00 | 0.00 | 0.00 | 32 | 1003.4 |
| 20260503201403 | 73 | 305 | 7.0 | 17.0 | 0.00 | 0.00 | 0.00 | 32 | 1003.4 |
| 20260503201203 | 73 | 307 | 8.0 | 17.0 | 0.00 | 0.00 | 0.00 | 32 | 1003.4 |
| 20260503201004 | 73 | 297 | 15.0 | 17.0 | 0.00 | 0.00 | 0.00 | 32 | 1003.4 |
| 20260503200903 | 73 | 293 | 12.0 | 17.0 | 0.00 | 0.00 | 0.00 | 32 | 1003.4 |
| 20260503200703 | 73 | 291 | 14.0 | 17.0 | 0.00 | 0.00 | 0.00 | 32 | 1003.4 |
| 20260503200503 | 73 | 284 | 8.0 | 16.0 | 0.00 | 0.00 | 0.00 | 32 | 1003.4 |
| 20260503200403 | 72 | 285 | 9.0 | 16.0 | 0.00 | 0.00 | 0.00 | 32 | 1003.4 |
| 20260503200303 | 72 | 289 | 8.0 | 16.0 | 0.00 | 0.00 | 0.00 | 31 | 1003.4 |
| 20260503200203 | 72 | 286 | 12.0 | 16.0 | 0.00 | 0.00 | 0.00 | 31 | 1003.4 |
| 20260503200004 | 72 | 299 | 6.0 | 14.0 | 0.00 | 0.00 | 0.00 | 32 | 1003.4 |
| 20260503195903 | 73 | 301 | 8.0 | 14.0 | 0.00 | 0.00 | 0.00 | 32 | 1003.4 |
| 20260503195803 | 73 | 302 | 9.0 | 14.0 | 0.00 | 0.00 | 0.00 | 31 | 1003.4 |
| 20260503195703 | 73 | 300 | 9.0 | 14.0 | 0.00 | 0.00 | 0.00 | 33 | 1003.4 |
| 20260503195603 | 72 | 303 | 5.0 | 14.0 | 0.00 | 0.00 | 0.00 | 33 | 1003.4 |
| 20260503195503 | 72 | 304 | 8.0 | 14.0 | 0.00 | 0.00 | 0.00 | 33 | 1002.3 |
| 20260503195203 | 72 | 302 | 10.0 | 17.0 | 0.00 | 0.00 | 0.00 | 33 | 1002.3 |
| 20260503195103 | 72 | 302 | 6.0 | 17.0 | 0.00 | 0.00 | 0.00 | 33 | 1002.3 |
| 20260503195003 | 72 | 298 | 6.0 | 17.0 | 0.00 | 0.00 | 0.00 | 33 | 1002.3 |
| 20260503194903 | 72 | 299 | 8.0 | 17.0 | 0.00 | 0.00 | 0.00 | 32 | 1002.3 |
| 20260503194803 | 72 | 299 | 11.0 | 17.0 | 0.00 | 0.00 | 0.00 | 32 | 1002.3 |
| 20260503194703 | 72 | 302 | 10.0 | 17.0 | 0.00 | 0.00 | 0.00 | 33 | 1002.3 |
| 20260503194602 | 72 | 301 | 14.0 | 17.0 | 0.00 | 0.00 | 0.00 | 33 | 1002.3 |
| 20260503194503 | 72 | 301 | 10.0 | 20.0 | 0.00 | 0.00 | 0.00 | 33 | 1002.3 |
| 20260503194403 | 72 | 300 | 10.0 | 23.0 | 0.00 | 0.00 | 0.00 | 33 | 1002.3 |
| 20260503194303 | 72 | 300 | 13.0 | 23.0 | 0.00 | 0.00 | 0.00 | 33 | 1002.3 |
| 20260503194203 | 72 | 301 | 9.0 | 23.0 | 0.00 | 0.00 | 0.00 | 32 | 1002.3 |
| 20260503194104 | 72 | 302 | 12.0 | 23.0 | 0.00 | 0.00 | 0.00 | 32 | 1002.3 |
| 20260503194004 | 71 | 307 | 12.0 | 23.0 | 0.00 | 0.00 | 0.00 | 33 | 1003.4 |
| 20260503193903 | 72 | 305 | 14.0 | 23.0 | 0.00 | 0.00 | 0.00 | 33 | 1003.4 |
| 20260503193803 | 72 | 305 | 12.0 | 23.0 | 0.00 | 0.00 | 0.00 | 33 | 1003.4 |
| 20260503193603 | 71 | 307 | 18.0 | 23.0 | 0.00 | 0.00 | 0.00 | 33 | 1003.4 |
| 20260503193303 | 71 | 304 | 10.0 | 23.0 | 0.00 | 0.00 | 0.00 | 34 | 1003.4 |
| 20260503193203 | 71 | 304 | 17.0 | 23.0 | 0.00 | 0.00 | 0.00 | 34 | 1003.4 |
| 20260503192903 | 71 | 303 | 16.0 | 18.0 | 0.00 | 0.00 | 0.00 | 34 | 1003.4 |
| 20260503192803 | 71 | 303 | 12.0 | 18.0 | 0.00 | 0.00 | 0.00 | 36 | 1003.4 |
| 20260503192703 | 71 | 299 | 9.0 | 18.0 | 0.00 | 0.00 | 0.00 | 34 | 1003.4 |
| 20260503192603 | 71 | 298 | 9.0 | 18.0 | 0.00 | 0.00 | 0.00 | 34 | 1003.4 |
| 20260503192503 | 71 | 297 | 11.0 | 18.0 | 0.00 | 0.00 | 0.00 | 34 | 1003.4 |
| 20260503192403 | 71 | 298 | 13.0 | 18.0 | 0.00 | 0.00 | 0.00 | 37 | 1003.4 |
| 20260503192305 | 71 | 303 | 14.0 | 18.0 | 0.00 | 0.00 | 0.00 | 37 | 1003.4 |
| 20260503192103 | 71 | 304 | 8.0 | 12.0 | 0.00 | 0.00 | 0.00 | 39 | 1003.4 |
| 20260503192003 | 71 | 301 | 9.0 | 14.0 | 0.00 | 0.00 | 0.00 | 38 | 1003.4 |
| 20260503191803 | 71 | 291 | 6.0 | 14.0 | 0.00 | 0.00 | 0.00 | 39 | 1003.4 |
| 20260503191702 | 71 | 288 | 8.0 | 14.0 | 0.00 | 0.00 | 0.00 | 41 | 1003.4 |
| 20260503191503 | 71 | 287 | 10.0 | 14.0 | 0.00 | 0.00 | 0.00 | 41 | 1003.4 |
| 20260503191303 | 71 | 262 | 9.0 | 14.0 | 0.00 | 0.00 | 0.00 | 42 | 1003.4 |
| 20260503191202 | 70 | 259 | 6.0 | 14.0 | 0.00 | 0.00 | 0.00 | 42 | 1003.4 |
| 20260503191103 | 70 | 262 | 6.0 | 14.0 | 0.00 | 0.00 | 0.00 | 42 | 1003.4 |
| 20260503190903 | 70 | 263 | 4.0 | 14.0 | 0.00 | 0.00 | 0.00 | 42 | 1004.5 |
| 20260503190803 | 70 | 264 | 7.0 | 14.0 | 0.00 | 0.00 | 0.00 | 42 | 1004.5 |
| 20260503190603 | 70 | 266 | 11.0 | 14.0 | 0.00 | 0.00 | 0.00 | 44 | 1004.5 |
| 20260503190503 | 70 | 271 | 12.0 | 14.0 | 0.00 | 0.00 | 0.00 | 44 | 1004.5 |
| 20260503190202 | 70 | 292 | 9.0 | 16.0 | 0.00 | 0.00 | 0.00 | 42 | 1004.5 |
| 20260503190004 | 70 | 293 | 10.0 | 16.0 | 0.00 | 0.00 | 0.00 | 42 | 1004.5 |
| 20260503185803 | 70 | 302 | 9.0 | 18.0 | 0.00 | 0.00 | 0.00 | 41 | 1004.5 |
| 20260503185703 | 69 | 306 | 8.0 | 18.0 | 0.00 | 0.00 | 0.00 | 41 | 1004.5 |
| 20260503185503 | 70 | 304 | 8.0 | 18.0 | 0.00 | 0.00 | 0.00 | 42 | 1004.5 |
| 20260503185403 | 70 | 297 | 11.0 | 18.0 | 0.00 | 0.00 | 0.00 | 41 | 1004.5 |
| 20260503185304 | 70 | 295 | 9.0 | 18.0 | 0.00 | 0.00 | 0.00 | 41 | 1004.5 |
| 20260503185203 | 70 | 288 | 8.0 | 18.0 | 0.00 | 0.00 | 0.00 | 41 | 1004.5 |
| 20260503185103 | 70 | 284 | 12.0 | 18.0 | 0.00 | 0.00 | 0.00 | 40 | 1004.5 |
| 20260503184804 | 69 | 279 | 7.0 | 16.0 | 0.00 | 0.00 | 0.00 | 41 | 1004.5 |
| 20260503184703 | 69 | 278 | 8.0 | 16.0 | 0.00 | 0.00 | 0.00 | 41 | 1004.5 |
| 20260503184603 | 69 | 277 | 7.0 | 16.0 | 0.00 | 0.00 | 0.00 | 41 | 1004.5 |
| 20260503184403 | 69 | 281 | 8.0 | 16.0 | 0.00 | 0.00 | 0.00 | 42 | 1004.5 |
| 20260503184303 | 69 | 283 | 10.0 | 16.0 | 0.00 | 0.00 | 0.00 | 40 | 1004.5 |
| 20260503184202 | 69 | 285 | 12.0 | 16.0 | 0.00 | 0.00 | 0.00 | 41 | 1004.5 |
| 20260503184103 | 69 | 282 | 9.0 | 19.0 | 0.00 | 0.00 | 0.00 | 41 | 1004.5 |
| 20260503184003 | 69 | 277 | 8.0 | 19.0 | 0.00 | 0.00 | 0.00 | 42 | 1005.6 |
| 20260503183803 | 69 | 269 | 10.0 | 19.0 | 0.00 | 0.00 | 0.00 | 42 | 1005.6 |
| 20260503183703 | 69 | 263 | 13.0 | 21.0 | 0.00 | 0.00 | 0.00 | 42 | 1005.6 |
| 20260503183603 | 69 | 259 | 9.0 | 21.0 | 0.00 | 0.00 | 0.00 | 42 | 1005.6 |
| 20260503183504 | 69 | 259 | 9.0 | 21.0 | 0.00 | 0.00 | 0.00 | 42 | 1005.6 |
| 20260503183303 | 69 | 253 | 9.0 | 21.0 | 0.00 | 0.00 | 0.00 | 42 | 1005.6 |
| 20260503183203 | 69 | 249 | 13.0 | 21.0 | 0.00 | 0.00 | 0.00 | 42 | 1005.6 |
| 20260503183103 | 69 | 249 | 13.0 | 21.0 | 0.00 | 0.00 | 0.00 | 42 | 1005.6 |
| 20260503182903 | 69 | 252 | 14.0 | 21.0 | 0.00 | 0.00 | 0.00 | 42 | 1005.6 |
| 20260503182803 | 69 | 254 | 17.0 | 21.0 | 0.00 | 0.00 | 0.00 | 42 | 1005.6 |
| 20260503182703 | 69 | 257 | 14.0 | 20.0 | 0.00 | 0.00 | 0.00 | 44 | 1005.6 |
| 20260503182403 | 69 | 267 | 14.0 | 20.0 | 0.00 | 0.00 | 0.00 | 45 | 1005.6 |
| 20260503182305 | 69 | 270 | 11.0 | 19.0 | 0.00 | 0.00 | 0.00 | 45 | 1005.6 |
| 20260503182203 | 69 | 274 | 13.0 | 19.0 | 0.00 | 0.00 | 0.00 | 45 | 1005.6 |
| 20260503182103 | 69 | 277 | 14.0 | 19.0 | 0.00 | 0.00 | 0.00 | 44 | 1005.6 |
| 20260503182005 | 69 | 279 | 12.0 | 19.0 | 0.00 | 0.00 | 0.00 | 45 | 1005.6 |
| 20260503181903 | 69 | 281 | 12.0 | 19.0 | 0.00 | 0.00 | 0.00 | 44 | 1005.6 |
| 20260503181803 | 68 | 280 | 12.0 | 16.0 | 0.00 | 0.00 | 0.00 | 46 | 1005.6 |
| 20260503181603 | 68 | 272 | 8.0 | 16.0 | 0.00 | 0.00 | 0.00 | 45 | 1005.6 |
| 20260503181504 | 68 | 271 | 5.0 | 16.0 | 0.00 | 0.00 | 0.00 | 47 | 1005.6 |
| 20260503181103 | 68 | 273 | 10.0 | 21.0 | 0.00 | 0.00 | 0.00 | 46 | 1005.6 |
| 20260503180903 | 68 | 274 | 5.0 | 21.0 | 0.00 | 0.00 | 0.00 | 46 | 1004.5 |
| 20260503180803 | 68 | 274 | 8.0 | 21.0 | 0.00 | 0.00 | 0.00 | 47 | 1004.5 |
| 20260503180703 | 68 | 279 | 10.0 | 21.0 | 0.00 | 0.00 | 0.00 | 47 | 1004.5 |
| 20260503180602 | 68 | 277 | 9.0 | 21.0 | 0.00 | 0.00 | 0.00 | 47 | 1004.5 |
| 20260503180503 | 68 | 277 | 9.0 | 21.0 | 0.00 | 0.00 | 0.00 | 47 | 1004.5 |
| 20260503180403 | 68 | 275 | 13.0 | 21.0 | 0.00 | 0.00 | 0.00 | 48 | 1004.5 |
| 20260503180303 | 68 | 270 | 4.0 | 14.0 | 0.00 | 0.00 | 0.00 | 47 | 1004.5 |
| 20260503180203 | 68 | 263 | 4.0 | 22.0 | 0.00 | 0.00 | 0.00 | 47 | 1004.5 |
| 20260503180103 | 68 | 262 | 9.0 | 22.0 | 0.00 | 0.00 | 0.00 | 47 | 1004.5 |
| 20260503180004 | 68 | 262 | 9.0 | 22.0 | 0.00 | 0.00 | 0.00 | 47 | 1004.5 |
| 20260503175903 | 68 | 257 | 6.0 | 22.0 | 0.00 | 0.00 | 0.00 | 47 | 1004.5 |
| 20260503175803 | 68 | 253 | 6.0 | 22.0 | 0.00 | 0.00 | 0.00 | 47 | 1004.5 |
| 20260503175703 | 68 | 252 | 8.0 | 22.0 | 0.00 | 0.00 | 0.00 | 47 | 1004.5 |
| 20260503175603 | 68 | 254 | 9.0 | 22.0 | 0.00 | 0.00 | 0.00 | 47 | 1004.5 |
| 20260503175503 | 68 | 251 | 11.0 | 22.0 | 0.00 | 0.00 | 0.00 | 47 | 1004.5 |
| 20260503175403 | 67 | 255 | 16.0 | 22.0 | 0.00 | 0.00 | 0.00 | 47 | 1004.5 |
| 20260503175304 | 67 | 254 | 19.0 | 22.0 | 0.00 | 0.00 | 0.00 | 47 | 1004.5 |
| 20260503175203 | 67 | 254 | 12.0 | 21.0 | 0.00 | 0.00 | 0.00 | 48 | 1004.5 |
| 20260503175103 | 67 | 255 | 10.0 | 17.0 | 0.00 | 0.00 | 0.00 | 48 | 1004.5 |
| 20260503174902 | 67 | 255 | 10.0 | 17.0 | 0.00 | 0.00 | 0.00 | 48 | 1004.5 |
| 20260503174803 | 67 | 258 | 6.0 | 17.0 | 0.00 | 0.00 | 0.00 | 49 | 1004.5 |
| 20260503174703 | 67 | 254 | 6.0 | 17.0 | 0.00 | 0.00 | 0.00 | 49 | 1004.5 |
| 20260503174603 | 67 | 251 | 5.0 | 17.0 | 0.00 | 0.00 | 0.00 | 48 | 1004.5 |
| 20260503174503 | 67 | 249 | 10.0 | 17.0 | 0.00 | 0.00 | 0.00 | 48 | 1004.5 |
| 20260503174402 | 67 | 249 | 14.0 | 17.0 | 0.00 | 0.00 | 0.00 | 48 | 1004.5 |
| 20260503174203 | 67 | 249 | 8.0 | 17.0 | 0.00 | 0.00 | 0.00 | 49 | 1004.5 |
| 20260503174103 | 67 | 248 | 6.0 | 17.0 | 0.00 | 0.00 | 0.00 | 49 | 1004.5 |
| 20260503174003 | 67 | 249 | 7.0 | 17.0 | 0.00 | 0.00 | 0.00 | 49 | 1005.6 |
| 20260503173903 | 66 | 250 | 12.0 | 20.0 | 0.00 | 0.00 | 0.00 | 49 | 1005.6 |
| 20260503173803 | 66 | 250 | 13.0 | 20.0 | 0.00 | 0.00 | 0.00 | 49 | 1005.6 |
| 20260503173603 | 66 | 256 | 14.0 | 20.0 | 0.00 | 0.00 | 0.00 | 49 | 1005.6 |
| 20260503173503 | 66 | 259 | 13.0 | 20.0 | 0.00 | 0.00 | 0.00 | 49 | 1005.6 |
| 20260503173303 | 66 | 258 | 8.0 | 20.0 | 0.00 | 0.00 | 0.00 | 48 | 1005.6 |
| 20260503173202 | 66 | 260 | 14.0 | 20.0 | 0.00 | 0.00 | 0.00 | 48 | 1005.6 |
| 20260503173103 | 66 | 263 | 14.0 | 20.0 | 0.00 | 0.00 | 0.00 | 49 | 1005.6 |
| 20260503173004 | 66 | 264 | 12.0 | 20.0 | 0.00 | 0.00 | 0.00 | 49 | 1005.6 |
| 20260503172903 | 66 | 264 | 7.0 | 14.0 | 0.00 | 0.00 | 0.00 | 49 | 1005.6 |
| 20260503172704 | 66 | 266 | 7.0 | 17.0 | 0.00 | 0.00 | 0.00 | 51 | 1005.6 |
| 20260503172603 | 66 | 264 | 9.0 | 17.0 | 0.00 | 0.00 | 0.00 | 51 | 1005.6 |
| 20260503172403 | 66 | 263 | 7.0 | 24.0 | 0.00 | 0.00 | 0.00 | 51 | 1005.6 |
| 20260503172305 | 66 | 265 | 8.0 | 24.0 | 0.00 | 0.00 | 0.00 | 52 | 1005.6 |
| 20260503172203 | 66 | 264 | 9.0 | 24.0 | 0.00 | 0.00 | 0.00 | 51 | 1005.6 |
| 20260503172103 | 66 | 263 | 11.0 | 24.0 | 0.00 | 0.00 | 0.00 | 51 | 1005.6 |
| 20260503172004 | 66 | 264 | 12.0 | 24.0 | 0.00 | 0.00 | 0.00 | 51 | 1005.6 |
| 20260503171903 | 66 | 266 | 9.0 | 24.0 | 0.00 | 0.00 | 0.00 | 52 | 1005.6 |
| 20260503171804 | 66 | 268 | 14.0 | 24.0 | 0.00 | 0.00 | 0.00 | 51 | 1005.6 |
| 20260503171703 | 66 | 267 | 14.0 | 24.0 | 0.00 | 0.00 | 0.00 | 51 | 1005.6 |
| 20260503171403 | 66 | 272 | 5.0 | 17.0 | 0.00 | 0.00 | 0.00 | 53 | 1005.6 |
| 20260503171303 | 66 | 270 | 9.0 | 17.0 | 0.00 | 0.00 | 0.00 | 53 | 1005.6 |
| 20260503171203 | 66 | 270 | 5.0 | 17.0 | 0.00 | 0.00 | 0.00 | 52 | 1005.6 |
| 20260503171103 | 66 | 270 | 6.0 | 17.0 | 0.00 | 0.00 | 0.00 | 53 | 1005.6 |
| 20260503171003 | 65 | 269 | 6.0 | 17.0 | 0.00 | 0.00 | 0.00 | 53 | 1006.7 |
| 20260503170903 | 65 | 271 | 7.0 | 17.0 | 0.00 | 0.00 | 0.00 | 53 | 1006.7 |
| 20260503170803 | 65 | 268 | 13.0 | 18.0 | 0.00 | 0.00 | 0.00 | 52 | 1006.7 |
| 20260503170603 | 65 | 269 | 9.0 | 18.0 | 0.00 | 0.00 | 0.00 | 52 | 1006.7 |
| 20260503170502 | 65 | 270 | 9.0 | 18.0 | 0.00 | 0.00 | 0.00 | 52 | 1006.7 |
| 20260503170403 | 65 | 270 | 14.0 | 18.0 | 0.00 | 0.00 | 0.00 | 52 | 1006.7 |
| 20260503170303 | 65 | 268 | 11.0 | 18.0 | 0.00 | 0.00 | 0.00 | 52 | 1006.7 |
| 20260503170203 | 65 | 269 | 9.0 | 18.0 | 0.00 | 0.00 | 0.00 | 53 | 1006.7 |
| 20260503170103 | 65 | 268 | 7.0 | 18.0 | 0.00 | 0.00 | 0.00 | 54 | 1006.7 |
| 20260503160103 | 60 | 254 | 10.0 | 11.0 | 0.00 | 0.00 | 0.00 | 61 | 1007.7 |
| 20260503151004 | 56 | 251 | 4.0 | 9.0 | 0.00 | 0.00 | 0.00 | 67 | 1007.7 |
| 20260503150903 | 56 | 249 | 3.0 | 9.0 | 0.00 | 0.00 | 0.00 | 67 | 1007.7 |
| 20260503150803 | 56 | 246 | 5.0 | 9.0 | 0.00 | 0.00 | 0.00 | 67 | 1007.7 |
| 20260503150603 | 55 | 240 | 6.0 | 9.0 | 0.00 | 0.00 | 0.00 | 68 | 1007.7 |
| 20260503150503 | 55 | 240 | 6.0 | 9.0 | 0.00 | 0.00 | 0.00 | 68 | 1007.7 |
| 20260503150203 | 55 | 236 | 1.0 | 8.0 | 0.00 | 0.00 | 0.00 | 69 | 1007.7 |
| 20260503140303 | 49 | 211 | 0.0 | 6.0 | 0.00 | 0.00 | 0.00 | 76 | 1007.7 |
| 20260503140203 | 49 | 214 | 1.0 | 6.0 | 0.00 | 0.00 | 0.00 | 76 | 1007.7 |
| 20260503131403 | 47 | 322 | 0.0 | 4.0 | 0.00 | 0.00 | 0.00 | 76 | 1007.7 |
| 20260503131303 | 47 | 322 | 0.0 | 4.0 | 0.00 | 0.00 | 0.00 | 76 | 1007.7 |
| 20260503131203 | 47 | 322 | 2.0 | 4.0 | 0.00 | 0.00 | 0.00 | 76 | 1007.7 |
| 20260503131003 | 47 | 314 | 0.0 | 3.0 | 0.00 | 0.00 | 0.00 | 77 | 1007.7 |
| 20260503130903 | 47 | 0 | 0.0 | 0.0 | 0.00 | 0.00 | 0.00 | 77 | 1007.7 |
| 20260503130803 | 46 | 0 | 0.0 | 0.0 | 0.00 | 0.00 | 0.00 | 77 | 1007.7 |
| 20260503130503 | 46 | 0 | 0.0 | 0.0 | 0.00 | 0.00 | 0.00 | 79 | 1007.7 |
| 20260503130302 | 46 | 0 | 0.0 | 0.0 | 0.00 | 0.00 | 0.00 | 79 | 1007.7 |
| 20260503130203 | 46 | 0 | 0.0 | 0.0 | 0.00 | 0.00 | 0.00 | 79 | 1007.7 |
| 20260503130103 | 46 | 0 | 0.0 | 0.0 | 0.00 | 0.00 | 0.00 | 79 | 1007.7 |
| 20260503120203 | 43 | 245 | 6.0 | 13.0 | 0.00 | 0.00 | 0.00 | 77 | 1007.7 |
| 20260503110703 | 43 | 0 | 0.0 | 0.0 | 0.00 | 0.00 | 0.00 | 73 | 1007.7 |
| 20260503110603 | 43 | 0 | 0.0 | 0.0 | 0.00 | 0.00 | 0.00 | 73 | 1007.7 |
| 20260503110503 | 43 | 0 | 0.0 | 0.0 | 0.00 | 0.00 | 0.00 | 73 | 1007.7 |
| 20260503110402 | 43 | 0 | 0.0 | 0.0 | 0.00 | 0.00 | 0.00 | 73 | 1007.7 |
| 20260503110303 | 43 | 0 | 0.0 | 0.0 | 0.00 | 0.00 | 0.00 | 73 | 1007.7 |
| 20260503110203 | 43 | 0 | 0.0 | 0.0 | 0.00 | 0.00 | 0.00 | 73 | 1007.7 |
| 20260503100103 | 44 | 0 | 0.0 | 0.0 | 0.00 | 0.00 | 0.00 | 68 | 1008.8 |
| 20260503090502 | 45 | 135 | 0.0 | 3.0 | 0.00 | 0.00 | 0.00 | 65 | 1008.8 |
| 20260503090403 | 45 | 135 | 0.0 | 3.0 | 0.00 | 0.00 | 0.00 | 65 | 1008.8 |
| 20260503090303 | 45 | 135 | 0.0 | 3.0 | 0.00 | 0.00 | 0.00 | 65 | 1008.8 |
| 20260503090203 | 45 | 135 | 0.0 | 3.0 | 0.00 | 0.00 | 0.00 | 65 | 1008.8 |
| 20260503081603 | 46 | 0 | 0.0 | 0.0 | 0.00 | 0.00 | 0.00 | 62 | 1008.8 |
| 20260503081502 | 46 | 0 | 0.0 | 0.0 | 0.00 | 0.00 | 0.00 | 62 | 1008.8 |
| 20260503081403 | 46 | 0 | 0.0 | 0.0 | 0.00 | 0.00 | 0.00 | 63 | 1008.8 |
| 20260503081303 | 46 | 0 | 0.0 | 0.0 | 0.00 | 0.00 | 0.00 | 63 | 1008.8 |
| 20260503081203 | 46 | 0 | 0.0 | 0.0 | 0.00 | 0.00 | 0.00 | 63 | 1008.8 |
| 20260503081104 | 46 | 0 | 0.0 | 0.0 | 0.00 | 0.00 | 0.00 | 63 | 1008.8 |
| 20260503081004 | 46 | 0 | 0.0 | 0.0 | 0.00 | 0.00 | 0.00 | 63 | 1009.9 |
| 20260503080904 | 46 | 0 | 0.0 | 0.0 | 0.00 | 0.00 | 0.00 | 62 | 1009.9 |
| 20260503080803 | 46 | 0 | 0.0 | 0.0 | 0.00 | 0.00 | 0.00 | 62 | 1009.9 |
| 20260503080703 | 46 | 0 | 0.0 | 0.0 | 0.00 | 0.00 | 0.00 | 62 | 1009.9 |
| 20260503080603 | 46 | 0 | 0.0 | 0.0 | 0.00 | 0.00 | 0.00 | 63 | 1009.9 |
| 20260503080402 | 47 | 0 | 0.0 | 0.0 | 0.00 | 0.00 | 0.00 | 61 | 1009.9 |
| 20260503080203 | 47 | 0 | 0.0 | 0.0 | 0.00 | 0.00 | 0.00 | 61 | 1009.9 |
| 20260503080103 | 47 | 0 | 0.0 | 0.0 | 0.00 | 0.00 | 0.00 | 62 | 1009.9 |
| 20260503072903 | 48 | 0 | 0.0 | 0.0 | 0.00 | 0.00 | 0.00 | 61 | 1009.9 |
| 20260503072702 | 48 | 0 | 0.0 | 0.0 | 0.00 | 0.00 | 0.00 | 61 | 1009.9 |
| 20260503072403 | 48 | 0 | 0.0 | 0.0 | 0.00 | 0.00 | 0.00 | 60 | 1009.9 |
| 20260503072305 | 48 | 0 | 0.0 | 0.0 | 0.00 | 0.00 | 0.00 | 60 | 1009.9 |
| 20260503072203 | 48 | 0 | 0.0 | 0.0 | 0.00 | 0.00 | 0.00 | 60 | 1009.9 |
| 20260503072103 | 48 | 0 | 0.0 | 0.0 | 0.00 | 0.00 | 0.00 | 60 | 1009.9 |
| 20260503072004 | 48 | 0 | 0.0 | 0.0 | 0.00 | 0.00 | 0.00 | 60 | 1009.9 |
| 20260503071903 | 48 | 0 | 0.0 | 0.0 | 0.00 | 0.00 | 0.00 | 60 | 1009.9 |
| 20260503071803 | 48 | 0 | 0.0 | 0.0 | 0.00 | 0.00 | 0.00 | 60 | 1009.9 |
| 20260503071703 | 48 | 0 | 0.0 | 0.0 | 0.00 | 0.00 | 0.00 | 60 | 1009.9 |
| 20260503071603 | 48 | 0 | 0.0 | 0.0 | 0.00 | 0.00 | 0.00 | 60 | 1009.9 |
| 20260503071503 | 48 | 0 | 0.0 | 0.0 | 0.00 | 0.00 | 0.00 | 60 | 1009.9 |
| 20260503071403 | 48 | 0 | 0.0 | 0.0 | 0.00 | 0.00 | 0.00 | 60 | 1009.9 |
| 20260503071303 | 48 | 0 | 0.0 | 0.0 | 0.00 | 0.00 | 0.00 | 60 | 1009.9 |
| 20260503071203 | 48 | 0 | 0.0 | 0.0 | 0.00 | 0.00 | 0.00 | 60 | 1009.9 |
| 20260503071103 | 48 | 0 | 0.0 | 0.0 | 0.00 | 0.00 | 0.00 | 60 | 1009.9 |
| 20260503071003 | 48 | 0 | 0.0 | 0.0 | 0.00 | 0.00 | 0.00 | 60 | 1009.9 |
| 20260503070903 | 49 | 0 | 0.0 | 0.0 | 0.00 | 0.00 | 0.00 | 60 | 1009.9 |
| 20260503070802 | 49 | 0 | 0.0 | 0.0 | 0.00 | 0.00 | 0.00 | 60 | 1009.9 |
| 20260503070603 | 49 | 0 | 0.0 | 0.0 | 0.00 | 0.00 | 0.00 | 60 | 1009.9 |
| 20260503070503 | 49 | 0 | 0.0 | 0.0 | 0.00 | 0.00 | 0.00 | 60 | 1009.9 |
| 20260503070404 | 49 | 0 | 0.0 | 0.0 | 0.00 | 0.00 | 0.00 | 60 | 1009.9 |
| 20260503070303 | 49 | 0 | 0.0 | 0.0 | 0.00 | 0.00 | 0.00 | 60 | 1009.9 |
| 20260503070203 | 49 | 0 | 0.0 | 0.0 | 0.00 | 0.00 | 0.00 | 60 | 1009.9 |
| 20260503070103 | 49 | 0 | 0.0 | 0.0 | 0.00 | 0.00 | 0.00 | 60 | 1009.9 |
| 20260503060303 | 50 | 0 | 0.0 | 0.0 | 0.00 | 0.00 | 0.00 | 56 | 1009.9 |
| 20260503060203 | 50 | 0 | 0.0 | 0.0 | 0.00 | 0.00 | 0.00 | 56 | 1009.9 |
| 20260503055004 | 50 | 89 | 0.0 | 3.0 | 0.00 | 0.00 | 0.00 | 56 | 1009.9 |
| 20260503054903 | 50 | 89 | 0.0 | 3.0 | 0.00 | 0.00 | 0.00 | 56 | 1009.9 |
| 20260503054803 | 50 | 89 | 0.0 | 3.0 | 0.00 | 0.00 | 0.00 | 56 | 1009.9 |
| 20260503054503 | 50 | 87 | 0.0 | 2.0 | 0.00 | 0.00 | 0.00 | 56 | 1009.9 |
| 20260503054403 | 50 | 82 | 0.0 | 2.0 | 0.00 | 0.00 | 0.00 | 55 | 1009.9 |
| 20260503054303 | 50 | 0 | 0.0 | 0.0 | 0.00 | 0.00 | 0.00 | 55 | 1009.9 |
| 20260503054203 | 50 | 0 | 0.0 | 0.0 | 0.00 | 0.00 | 0.00 | 55 | 1009.9 |
| 20260503054103 | 50 | 0 | 0.0 | 0.0 | 0.00 | 0.00 | 0.00 | 55 | 1009.9 |
| 20260503054004 | 51 | 0 | 0.0 | 0.0 | 0.00 | 0.00 | 0.00 | 55 | 1008.8 |
| 20260503053904 | 51 | 0 | 0.0 | 0.0 | 0.00 | 0.00 | 0.00 | 55 | 1008.8 |
| 20260503053803 | 51 | 0 | 0.0 | 0.0 | 0.00 | 0.00 | 0.00 | 55 | 1008.8 |
| 20260503053703 | 51 | 0 | 0.0 | 0.0 | 0.00 | 0.00 | 0.00 | 55 | 1008.8 |
| 20260503053603 | 51 | 0 | 0.0 | 0.0 | 0.00 | 0.00 | 0.00 | 55 | 1008.8 |
| 20260503053503 | 51 | 0 | 0.0 | 0.0 | 0.00 | 0.00 | 0.00 | 55 | 1008.8 |
| 20260503053402 | 51 | 0 | 0.0 | 0.0 | 0.00 | 0.00 | 0.00 | 55 | 1008.8 |
| 20260503053303 | 51 | 0 | 0.0 | 0.0 | 0.00 | 0.00 | 0.00 | 55 | 1008.8 |
| 20260503053203 | 51 | 0 | 0.0 | 0.0 | 0.00 | 0.00 | 0.00 | 55 | 1008.8 |
| 20260503053103 | 51 | 0 | 0.0 | 0.0 | 0.00 | 0.00 | 0.00 | 55 | 1008.8 |
| 20260503053003 | 51 | 0 | 0.0 | 0.0 | 0.00 | 0.00 | 0.00 | 55 | 1008.8 |
| 20260503052903 | 51 | 0 | 0.0 | 0.0 | 0.00 | 0.00 | 0.00 | 55 | 1008.8 |
| 20260503052603 | 51 | 0 | 0.0 | 0.0 | 0.00 | 0.00 | 0.00 | 55 | 1008.8 |
| 20260503052503 | 51 | 0 | 0.0 | 0.0 | 0.00 | 0.00 | 0.00 | 55 | 1009.9 |
| 20260503052403 | 51 | 0 | 0.0 | 0.0 | 0.00 | 0.00 | 0.00 | 55 | 1009.9 |
| 20260503052305 | 51 | 0 | 0.0 | 0.0 | 0.00 | 0.00 | 0.00 | 55 | 1009.9 |
| 20260503052203 | 51 | 0 | 0.0 | 0.0 | 0.00 | 0.00 | 0.00 | 55 | 1009.9 |
| 20260503052103 | 51 | 0 | 0.0 | 0.0 | 0.00 | 0.00 | 0.00 | 55 | 1009.9 |
| 20260503052004 | 51 | 0 | 0.0 | 0.0 | 0.00 | 0.00 | 0.00 | 55 | 1009.9 |
| 20260503051903 | 51 | 0 | 0.0 | 0.0 | 0.00 | 0.00 | 0.00 | 55 | 1009.9 |
| 20260503051803 | 51 | 0 | 0.0 | 0.0 | 0.00 | 0.00 | 0.00 | 55 | 1009.9 |
| 20260503051703 | 51 | 0 | 0.0 | 0.0 | 0.00 | 0.00 | 0.00 | 55 | 1009.9 |
| 20260503051603 | 51 | 0 | 0.0 | 0.0 | 0.00 | 0.00 | 0.00 | 55 | 1009.9 |
| 20260503051503 | 51 | 0 | 0.0 | 0.0 | 0.00 | 0.00 | 0.00 | 55 | 1009.9 |
| 20260503051303 | 51 | 0 | 0.0 | 0.0 | 0.00 | 0.00 | 0.00 | 55 | 1009.9 |
| 20260503051203 | 52 | 0 | 0.0 | 0.0 | 0.00 | 0.00 | 0.00 | 55 | 1009.9 |
| 20260503051102 | 52 | 0 | 0.0 | 0.0 | 0.00 | 0.00 | 0.00 | 55 | 1009.9 |
| 20260503051004 | 52 | 0 | 0.0 | 0.0 | 0.00 | 0.00 | 0.00 | 55 | 1008.8 |
| 20260503050903 | 52 | 0 | 0.0 | 0.0 | 0.00 | 0.00 | 0.00 | 55 | 1008.8 |
| 20260503050803 | 52 | 0 | 0.0 | 0.0 | 0.00 | 0.00 | 0.00 | 55 | 1008.8 |
| 20260503050703 | 52 | 0 | 0.0 | 0.0 | 0.00 | 0.00 | 0.00 | 55 | 1008.8 |
| 20260503050603 | 52 | 0 | 0.0 | 0.0 | 0.00 | 0.00 | 0.00 | 55 | 1008.8 |
| 20260503050504 | 52 | 0 | 0.0 | 0.0 | 0.00 | 0.00 | 0.00 | 55 | 1008.8 |
| 20260503050403 | 52 | 0 | 0.0 | 0.0 | 0.00 | 0.00 | 0.00 | 55 | 1008.8 |
| 20260503050303 | 52 | 0 | 0.0 | 0.0 | 0.00 | 0.00 | 0.00 | 55 | 1008.8 |
| 20260503050203 | 52 | 0 | 0.0 | 0.0 | 0.00 | 0.00 | 0.00 | 55 | 1008.8 |
| 20260503050004 | 52 | 0 | 0.0 | 0.0 | 0.00 | 0.00 | 0.00 | 55 | 1008.8 |
| 20260503045904 | 52 | 0 | 0.0 | 0.0 | 0.00 | 0.00 | 0.00 | 55 | 1008.8 |
| 20260503045803 | 52 | 0 | 0.0 | 0.0 | 0.00 | 0.00 | 0.00 | 55 | 1008.8 |
| 20260503045703 | 52 | 0 | 0.0 | 0.0 | 0.00 | 0.00 | 0.00 | 55 | 1008.8 |
| 20260503045603 | 52 | 0 | 0.0 | 0.0 | 0.00 | 0.00 | 0.00 | 55 | 1008.8 |
| 20260503045502 | 53 | 0 | 0.0 | 0.0 | 0.00 | 0.00 | 0.00 | 55 | 1009.9 |
| 20260503045403 | 53 | 0 | 0.0 | 0.0 | 0.00 | 0.00 | 0.00 | 55 | 1009.9 |
| 20260503045305 | 53 | 0 | 0.0 | 0.0 | 0.00 | 0.00 | 0.00 | 55 | 1009.9 |
| 20260503045204 | 53 | 0 | 0.0 | 0.0 | 0.00 | 0.00 | 0.00 | 54 | 1009.9 |
| 20260503045102 | 53 | 0 | 0.0 | 0.0 | 0.00 | 0.00 | 0.00 | 54 | 1009.9 |
| 20260503044903 | 53 | 0 | 0.0 | 0.0 | 0.00 | 0.00 | 0.00 | 54 | 1009.9 |
| 20260503044803 | 53 | 0 | 0.0 | 0.0 | 0.00 | 0.00 | 0.00 | 54 | 1009.9 |
| 20260503044603 | 53 | 0 | 0.0 | 0.0 | 0.00 | 0.00 | 0.00 | 54 | 1009.9 |
| 20260503044503 | 53 | 0 | 0.0 | 0.0 | 0.00 | 0.00 | 0.00 | 54 | 1009.9 |
| 20260503044403 | 53 | 0 | 0.0 | 0.0 | 0.00 | 0.00 | 0.00 | 54 | 1009.9 |
| 20260503044303 | 53 | 0 | 0.0 | 0.0 | 0.00 | 0.00 | 0.00 | 54 | 1009.9 |
| 20260503044203 | 53 | 0 | 0.0 | 0.0 | 0.00 | 0.00 | 0.00 | 54 | 1009.9 |
| 20260503044102 | 53 | 0 | 0.0 | 0.0 | 0.00 | 0.00 | 0.00 | 54 | 1009.9 |
| 20260503044004 | 53 | 0 | 0.0 | 0.0 | 0.00 | 0.00 | 0.00 | 54 | 1009.9 |
| 20260503043902 | 53 | 0 | 0.0 | 0.0 | 0.00 | 0.00 | 0.00 | 54 | 1009.9 |
| 20260503043703 | 53 | 0 | 0.0 | 0.0 | 0.00 | 0.00 | 0.00 | 54 | 1009.9 |
| 20260503043503 | 53 | 0 | 0.0 | 0.0 | 0.00 | 0.00 | 0.00 | 54 | 1009.9 |
| 20260503043403 | 54 | 0 | 0.0 | 0.0 | 0.00 | 0.00 | 0.00 | 53 | 1009.9 |
| 20260503043303 | 54 | 0 | 0.0 | 0.0 | 0.00 | 0.00 | 0.00 | 53 | 1009.9 |
| 20260503043203 | 54 | 0 | 0.0 | 0.0 | 0.00 | 0.00 | 0.00 | 53 | 1009.9 |
| 20260503043103 | 54 | 0 | 0.0 | 0.0 | 0.00 | 0.00 | 0.00 | 53 | 1009.9 |
| 20260503043004 | 54 | 0 | 0.0 | 0.0 | 0.00 | 0.00 | 0.00 | 53 | 1009.9 |
| 20260503042904 | 54 | 0 | 0.0 | 0.0 | 0.00 | 0.00 | 0.00 | 53 | 1009.9 |
| 20260503042803 | 54 | 0 | 0.0 | 0.0 | 0.00 | 0.00 | 0.00 | 53 | 1009.9 |
| 20260503042703 | 54 | 0 | 0.0 | 0.0 | 0.00 | 0.00 | 0.00 | 53 | 1009.9 |
| 20260503042603 | 54 | 0 | 0.0 | 0.0 | 0.00 | 0.00 | 0.00 | 53 | 1009.9 |
| 20260503042503 | 54 | 64 | 0.0 | 6.0 | 0.00 | 0.00 | 0.00 | 53 | 1008.8 |
| 20260503042305 | 54 | 72 | 0.0 | 6.0 | 0.00 | 0.00 | 0.00 | 53 | 1008.8 |
| 20260503042203 | 54 | 72 | 0.0 | 6.0 | 0.00 | 0.00 | 0.00 | 53 | 1008.8 |
| 20260503042003 | 54 | 84 | 0.0 | 6.0 | 0.00 | 0.00 | 0.00 | 53 | 1008.8 |
| 20260503041903 | 54 | 103 | 0.0 | 6.0 | 0.00 | 0.00 | 0.00 | 53 | 1008.8 |
| 20260503041802 | 54 | 105 | 0.0 | 6.0 | 0.00 | 0.00 | 0.00 | 53 | 1008.8 |
| 20260503041603 | 54 | 105 | 2.0 | 6.0 | 0.00 | 0.00 | 0.00 | 53 | 1008.8 |
| 20260503041503 | 54 | 110 | 0.0 | 6.0 | 0.00 | 0.00 | 0.00 | 53 | 1008.8 |
| 20260503041403 | 54 | 112 | 0.0 | 6.0 | 0.00 | 0.00 | 0.00 | 53 | 1008.8 |
| 20260503041303 | 54 | 112 | 0.0 | 6.0 | 0.00 | 0.00 | 0.00 | 53 | 1008.8 |
| 20260503041203 | 54 | 112 | 0.0 | 6.0 | 0.00 | 0.00 | 0.00 | 53 | 1008.8 |
| 20260503041103 | 54 | 112 | 3.0 | 6.0 | 0.00 | 0.00 | 0.00 | 53 | 1008.8 |
| 20260503041004 | 54 | 111 | 5.0 | 6.0 | 0.00 | 0.00 | 0.00 | 53 | 1009.9 |
| 20260503040903 | 54 | 110 | 3.0 | 6.0 | 0.00 | 0.00 | 0.00 | 52 | 1009.9 |
| 20260503040803 | 54 | 74 | 0.0 | 1.0 | 0.00 | 0.00 | 0.00 | 52 | 1009.9 |
| 20260503040703 | 54 | 64 | 0.0 | 3.0 | 0.00 | 0.00 | 0.00 | 52 | 1009.9 |
| 20260503040603 | 54 | 64 | 0.0 | 3.0 | 0.00 | 0.00 | 0.00 | 52 | 1009.9 |
| 20260503040503 | 54 | 64 | 0.0 | 3.0 | 0.00 | 0.00 | 0.00 | 51 | 1009.9 |
| 20260503040403 | 54 | 64 | 0.0 | 3.0 | 0.00 | 0.00 | 0.00 | 51 | 1009.9 |
| 20260503040303 | 55 | 64 | 0.0 | 3.0 | 0.00 | 0.00 | 0.00 | 51 | 1009.9 |
| 20260503040203 | 55 | 64 | 0.0 | 3.0 | 0.00 | 0.00 | 0.00 | 51 | 1009.9 |
| 20260503040004 | 55 | 59 | 0.0 | 3.0 | 0.00 | 0.00 | 0.00 | 49 | 1009.9 |
| 20260503035903 | 55 | 59 | 0.0 | 3.0 | 0.00 | 0.00 | 0.00 | 49 | 1009.9 |